Theta_e
319 314 314 311 298 296 292 296 297 297 297 303 305 304 301 308 306 303 321 328 334 336 337 338 341 339 338 337 336 336 335 335 334 334 332 333 333 335 336 337 339 340 341 341 340 339 339 340 341
312 312 311 305 292 289 291 297 295 297 302 303 304 303 300 303 313 317 318 329 334 334 333 334 337 336 335 334 333 333 332 332 331 329 330 330 331 331 331 332 333 336 337 337 336 335 334 334 335
309 312 303 297 293 288 290 295 295 300 302 301 300 302 302 303 314 317 324 328 331 329 330 331 335 334 333 330 330 330 330 329 328 328 328 329 329 328 328 328 329 328 329 330 330 329 328 328 328
307 306 303 293 291 295 295 295 298 298 301 302 302 298 301 306 312 320 327 328 327 326 328 331 333 332 330 329 329 329 328 327 326 326 326 326 325 324 324 325 325 325 325 326 325 324 322 322 322
306 304 293 290 292 296 298 298 297 297 299 300 301 299 299 305 319 323 325 326 324 324 325 327 331 330 328 328 328 327 326 325 324 323 322 323 322 322 322 322 321 322 322 322 322 321 319 319 319
299 300 291 289 292 297 299 298 299 297 298 299 299 299 299 307 316 320 323 323 324 323 324 324 325 327 327 326 325 324 323 323 321 320 320 319 319 319 319 319 319 319 319 318 318 317 316 315 315
295 295 291 292 293 296 298 300 296 297 297 298 301 295 299 304 313 319 321 322 324 323 321 320 319 321 323 324 323 321 320 319 318 316 316 315 314 313 314 315 315 315 315 315 314 313 312 312 312
297 296 292 293 292 294 299 297 296 296 296 299 301 295 295 305 314 317 319 319 319 320 320 317 315 316 313 312 318 317 315 314 312 311 310 309 309 309 309 308 309 310 310 310 310 310 309 309 309
300 291 289 292 294 296 297 295 297 297 295 295 299 297 305 311 314 314 314 315 315 317 316 314 313 313 312 310 310 312 311 309 307 305 305 305 303 302 302 303 304 305 305 305 307 307 308 308 310
294 290 292 298 299 298 298 295 297 293 294 294 296 300 307 310 311 311 310 311 311 312 312 312 310 309 310 310 305 304 303 302 302 302 302 303 300 299 301 302 302 302 302 305 307 308 308 307 301
295 290 296 299 301 299 297 295 297 294 293 296 295 298 303 306 308 309 310 311 311 311 311 309 307 306 306 304 303 301 301 300 300 300 300 300 301 300 299 299 299 299 304 300 302 301 301 301 300
292 296 297 298 300 296 294 297 295 295 295 299 298 300 302 303 305 307 308 309 310 310 311 308 306 305 304 301 301 301 300 300 299 299 300 299 298 298 297 297 297 298 298 297 298 298 299 299 300
295 295 298 299 298 295 296 294 294 295 297 299 298 300 300 301 303 305 307 309 310 308 309 307 304 302 302 301 300 300 299 299 299 299 299 298 297 296 297 296 296 296 297 296 295 296 297 297 298
298 297 298 297 297 296 293 293 294 295 298 298 297 296 298 299 301 302 304 306 308 308 307 306 304 302 302 300 300 299 299 298 298 297 298 298 297 295 295 295 296 295 295 295 295 295 295 295 297
298 293 295 295 295 293 294 290 290 297 298 297 297 295 297 298 300 300 302 304 307 307 307 304 303 303 300 300 300 299 298 299 297 297 297 298 297 295 294 294 294 294 295 295 294 295 295 295 296
292 292 286 294 294 294 293 286 295 297 296 296 296 295 296 297 298 297 300 303 305 305 305 305 304 302 300 299 298 298 297 296 297 296 296 297 297 296 293 293 293 294 294 293 293 293 292 293 294
289 283 285 289 296 294 291 287 295 298 297 296 296 296 296 295 295 295 296 296 298 300 302 303 301 300 300 299 297 296 296 295 295 295 295 296 296 296 293 293 293 293 293 292 293 292 292 292 292
283 284 287 287 293 294 290 288 293 294 294 295 295 294 294 294 294 295 295 295 295 295 297 300 301 299 299 297 296 295 294 294 294 294 294 295 294 295 293 293 293 293 291 291 292 291 292 292 292
289 287 287 290 294 291 290 290 292 295 292 291 292 293 294 294 295 295 295 294 294 294 295 297 299 298 297 294 292 292 292 292 292 293 294 293 293 294 292 291 292 292 290 290 291 290 290 290 292
288 285 285 290 294 290 289 289 292 294 295 293 292 293 293 293 293 293 292 292 292 293 294 296 298 297 296 295 294 293 293 293 293 293 292 293 293 293 292 291 290 290 289 289 290 290 289 290 291
287 284 284 285 290 288 286 284 287 291 294 296 294 295 294 294 292 290 291 291 291 292 293 296 296 296 295 295 294 291 290 290 288 289 289 291 291 291 291 290 289 289 289 288 289 289 289 287 289
283 290 289 287 285 281 287 279 288 292 291 294 296 294 295 295 294 292 291 290 290 291 293 295 295 294 294 294 291 288 287 286 288 289 289 290 290 289 290 290 289 288 288 288 288 290 288 288 286
286 291 288 287 284 283 284 280 285 290 290 293 294 296 295 295 293 291 291 291 291 292 291 292 292 293 292 291 290 289 288 288 288 288 287 287 288 288 288 288 287 287 287 287 287 287 287 286 285
291 288 285 285 283 277 282 281 283 286 289 292 294 296 296 294 292 292 292 291 290 290 291 291 290 290 290 289 289 288 287 287 285 285 285 285 286 286 286 287 286 286 286 286 286 286 285 285 287
286 283 276 274 274 273 282 280 283 288 292 294 295 293 293 291 291 290 289 289 289 288 289 289 289 287 288 288 287 287 286 286 285 285 284 284 284 284 285 286 285 285 286 286 286 288 287 286 286
283 282 277 272 272 273 282 277 282 288 291 287 285 285 288 290 290 288 288 288 288 287 287 287 287 286 287 287 286 286 286 285 285 285 284 283 281 282 285 285 285 285 286 288 287 286 286 286 286
282 280 285 281 275 275 275 280 285 285 281 281 283 286 287 288 288 287 288 287 286 286 286 285 286 286 286 285 285 284 284 284 282 283 283 282 283 284 282 278 278 279 282 285 285 284 284 285 285
286 287 278 280 273 272 275 275 280 280 280 280 281 283 285 286 286 286 286 286 286 285 285 285 284 281 281 283 284 284 283 281 279 278 279 278 279 278 277 282 283 282 283 283 283 283 283 283 284
281 282 282 283 281 276 274 275 285 283 280 280 281 284 285 285 285 284 284 282 279 278 279 279 279 276 277 279 279 280 280 279 276 276 275 274 274 274 280 282 282 281 281 282 282 282 282 283 283
283 283 283 278 277 279 277 276 274 275 274 280 282 284 285 285 283 283 281 279 277 277 277 274 273 272 273 274 276 277 278 277 273 273 273 273 273 275 281 281 281 281 281 281 281 281 281 281 282
Wind_Speed
11 9 8 3 3 4 9 13 3 1 2 2 6 4 5 9 5 3 6 5 12 12 10 10 15 16 15 15 15 13 14 14 14 14 14 14 14 15 15 15 15 14 14 13 11 11 12 12 12
10 5 3 4 4 6 10 17 5 5 6 5 6 4 4 6 7 10 8 9 12 12 10 10 14 15 17 14 13 13 13 14 14 13 14 14 14 14 14 15 14 14 13 13 12 12 11 11 11
12 9 3 4 5 9 4 7 4 9 7 2 3 1 5 5 9 9 11 14 13 12 10 10 13 15 16 12 13 13 13 14 13 13 13 14 13 14 14 14 14 13 13 12 11 11 11 11 11
5 3 4 4 12 11 11 2 5 4 4 5 4 3 6 5 4 9 13 13 14 12 10 11 14 15 14 12 13 13 13 13 13 13 12 13 14 13 13 13 13 13 12 11 12 12 11 11 12
3 5 6 7 15 14 8 2 5 4 6 8 4 3 5 3 9 11 11 12 13 12 11 9 12 14 14 13 14 13 13 13 12 12 12 13 13 12 13 13 12 12 12 11 11 12 11 12 12
4 4 6 11 15 14 12 4 8 8 7 5 5 7 4 9 9 9 9 9 14 13 11 10 9 11 12 13 13 13 13 13 13 12 12 12 12 12 12 12 12 11 11 11 10 10 11 11 11
7 5 10 13 13 11 8 9 7 7 8 8 7 4 6 8 9 9 8 8 12 15 11 9 7 8 11 11 11 13 12 12 12 12 12 12 12 11 12 11 11 10 10 10 9 9 9 10 10
5 5 13 14 13 17 6 6 2 5 7 3 3 5 6 9 11 9 7 9 8 8 12 8 7 7 8 7 10 11 12 12 11 11 11 11 11 11 10 10 9 9 8 8 8 8 8 8 6
5 5 10 17 16 10 7 5 6 3 3 1 4 5 8 12 10 9 7 7 8 7 7 8 8 7 9 8 7 9 11 11 11 8 5 4 3 5 8 7 6 6 6 5 7 7 8 9 11
6 6 14 13 12 9 7 6 7 4 7 6 6 7 10 11 9 12 10 10 9 8 8 8 7 6 8 8 7 7 7 5 5 4 4 3 5 3 3 4 3 2 3 3 7 8 9 6 4
8 13 15 13 12 8 6 8 6 7 8 9 12 13 10 8 10 11 11 12 13 11 7 8 8 7 7 7 5 3 3 3 3 4 3 2 3 2 2 2 2 2 4 3 5 5 3 5 4
14 14 17 18 19 4 5 8 7 10 11 3 7 19 17 13 13 13 12 10 12 13 11 9 9 7 7 5 4 5 4 4 3 4 3 2 1 2 2 2 2 3 2 3 3 3 4 5 5
16 18 19 12 12 5 6 12 11 9 10 8 4 10 15 13 11 9 9 9 8 9 11 10 9 8 6 7 4 4 4 4 5 4 3 2 2 2 2 2 1 2 2 3 4 4 4 5 5
9 19 20 15 17 8 8 15 8 8 11 10 11 9 10 11 11 9 9 8 9 8 9 11 9 8 7 6 6 5 4 4 4 4 4 3 2 2 2 1 1 2 3 3 3 3 4 4 4
15 15 14 15 11 8 5 19 16 25 10 11 12 10 11 10 10 11 10 8 9 8 8 10 10 8 8 8 6 5 5 5 4 4 5 3 2 3 2 1 1 2 3 4 4 4 4 4 5
8 14 15 9 12 8 9 18 10 23 16 15 11 10 12 12 9 6 8 9 8 9 9 9 10 9 8 7 6 5 5 4 4 4 4 5 3 2 2 2 2 3 3 2 3 3 4 4 4
12 10 16 16 17 11 18 9 12 13 19 19 14 12 9 9 8 6 5 5 6 7 8 9 9 9 8 7 6 5 7 4 4 4 3 6 3 2 0 1 2 3 3 3 2 3 3 4 4
13 16 15 16 9 18 17 18 11 4 6 9 12 9 10 10 11 10 7 6 5 6 5 7 8 9 8 5 5 4 4 3 4 4 4 6 3 3 1 2 1 1 1 3 2 3 3 4 4
16 14 16 12 12 7 22 19 16 17 7 8 8 9 11 11 10 12 11 7 5 6 7 8 10 10 7 4 4 4 4 4 2 3 6 4 2 3 1 1 1 1 2 2 2 3 4 4 3
17 15 22 17 9 10 6 16 14 16 15 15 13 13 10 9 10 10 9 9 8 8 8 8 10 11 8 5 4 4 4 4 4 4 5 4 4 3 2 2 1 1 1 3 3 2 3 3 2
21 22 22 20 10 2 5 16 12 10 12 12 17 14 12 14 13 12 11 9 8 9 9 9 9 11 8 7 4 3 4 4 3 2 3 4 5 4 3 2 2 2 1 2 3 2 3 2 4
22 22 21 21 11 14 7 23 19 16 22 24 24 19 18 15 13 14 13 10 8 7 7 8 9 9 7 8 7 6 4 4 4 5 4 4 6 4 3 3 3 2 2 2 3 3 1 2 3
20 12 19 19 13 6 8 7 16 12 22 20 24 22 18 16 14 17 15 10 8 8 7 7 9 8 7 8 7 6 5 3 3 3 5 3 4 6 3 3 3 3 2 3 3 2 3 1 1
11 3 3 2 7 14 20 12 31 16 22 9 9 23 19 13 15 15 14 12 9 7 7 7 8 7 7 7 5 6 6 4 4 3 4 3 3 4 5 4 3 3 2 2 2 2 0 3 2
5 9 6 6 7 11 14 14 27 9 23 23 19 16 12 11 16 16 16 14 13 9 8 8 9 8 8 8 6 5 4 4 4 4 3 3 3 2 4 5 4 3 3 4 2 2 4 5 3
17 18 9 9 7 7 15 11 17 9 19 9 1 4 10 13 13 14 15 12 11 11 9 9 8 7 8 8 7 5 5 3 3 3 2 2 2 2 3 2 2 2 3 4 4 3 3 4 5
7 16 18 4 2 5 6 5 12 8 4 2 0 9 12 12 11 12 12 8 9 9 9 9 8 7 8 7 6 5 5 4 3 3 3 3 2 2 3 4 3 2 3 3 2 1 1 1 2
9 9 6 9 8 6 5 4 10 4 9 8 7 10 11 10 11 10 9 8 7 8 8 8 7 6 4 5 5 4 4 4 4 4 2 3 3 3 4 4 3 4 4 4 3 3 3 4 3
5 8 5 5 6 6 3 6 3 5 3 10 9 9 13 13 11 10 8 8 7 7 7 6 6 5 4 3 3 3 2 4 4 4 3 4 3 4 3 4 5 5 4 4 4 5 6 7 6
4 9 14 6 6 5 2 7 1 1 3 1 10 9 11 12 13 11 10 8 6 6 6 6 4 5 3 2 2 1 2 2 3 3 5 4 5 4 4 5 4 4 4 4 6 6 6 7 6
Wind_Direction
274 238 238 275 235 197 257 246 206 58 344 40 354 21 347 42 23 127 91 113 103 106 106 100 103 105 98 95 98 98 94 91 90 84 82 78 78 74 71 66 65 65 62 62 60 56 45 40 36
286 234 262 248 251 226 245 226 150 232 88 40 40 335 291 97 86 119 127 137 115 114 112 104 105 111 102 100 106 107 104 97 91 88 85 83 78 75 71 70 70 69 67 62 55 51 45 37 31
283 257 259 211 215 225 257 34 23 94 91 154 189 342 350 83 109 132 121 131 123 108 107 110 112 112 107 115 115 111 106 101 98 91 88 86 81 75 73 72 69 67 65 62 57 52 45 35 27
249 219 263 255 248 222 244 35 63 76 66 275 293 144 75 17 82 114 133 146 127 121 114 117 119 114 115 126 122 116 110 105 98 94 88 84 79 75 74 70 67 64 61 56 50 43 36 29 21
260 265 235 219 253 261 272 131 77 269 183 178 221 199 99 85 96 127 142 148 128 124 121 115 119 128 135 132 123 118 114 108 102 94 87 83 79 75 72 67 63 60 56 51 44 37 29 22 16
236 255 242 230 245 241 238 146 165 203 250 117 186 260 104 131 137 141 155 147 129 132 123 134 126 131 132 128 125 121 118 114 109 103 97 90 84 77 71 66 59 57 54 46 40 30 19 14 7
246 253 249 263 265 266 184 161 209 213 224 209 149 237 125 159 147 141 163 135 136 128 136 125 126 103 98 105 120 120 116 113 109 105 98 91 86 81 74 64 57 51 45 38 32 24 13 2 358
253 247 262 255 255 264 265 119 180 245 241 31 120 211 170 158 137 140 161 133 123 133 137 146 130 134 115 94 91 112 114 111 108 106 107 110 104 93 68 64 53 49 41 33 22 10 357 340 326
319 246 243 243 246 248 125 156 147 56 279 191 159 75 108 127 140 144 142 143 129 141 141 135 155 155 134 125 113 111 117 119 118 116 135 186 81 68 99 80 59 46 32 18 14 358 342 321 300
209 230 238 248 260 262 171 178 175 167 207 215 127 99 123 142 166 159 168 167 156 164 161 150 157 153 146 138 161 151 148 175 165 141 141 91 97 106 104 141 156 180 346 326 343 352 340 355 348
202 239 255 272 276 324 291 179 228 189 242 193 194 164 166 168 178 175 183 178 170 166 171 162 158 159 156 133 165 142 165 125 116 112 106 110 114 117 95 94 75 37 35 11 356 352 7 347 333
243 243 252 267 290 291 245 294 220 209 236 5 195 174 167 179 188 191 187 185 173 169 170 163 162 155 170 135 151 165 146 143 146 129 140 143 115 94 71 71 12 37 20 340 3 346 335 337 323
231 239 253 280 269 260 300 260 250 241 225 253 97 128 169 181 193 196 196 182 170 170 165 161 157 159 166 145 178 149 136 151 135 131 114 46 100 87 78 55 2 13 10 7 356 342 343 325 314
261 241 253 258 266 261 240 259 251 252 248 249 170 181 183 189 193 186 194 179 175 163 163 155 157 165 157 159 158 152 141 133 128 134 135 112 54 83 60 30 10 346 38 7 325 302 295 295 289
267 265 264 250 241 223 234 259 235 241 239 224 228 194 193 207 197 192 184 186 166 164 159 154 157 166 160 163 152 147 150 135 148 144 130 128 85 44 47 335 8 32 30 325 329 321 320 322 311
274 229 249 225 223 220 193 252 240 232 223 227 227 209 198 196 196 204 179 172 157 153 168 158 161 160 161 163 150 148 141 154 155 140 148 139 127 82 357 353 351 52 352 329 329 327 325 318 317
229 237 224 252 226 197 195 242 250 238 213 225 221 213 210 184 169 186 146 129 136 150 160 161 148 155 160 160 148 147 145 161 149 142 142 145 141 137 143 337 359 45 340 327 315 329 328 317 310
228 217 235 247 228 214 204 233 280 293 302 227 206 205 205 181 188 164 164 170 170 159 172 163 149 148 154 142 131 127 127 158 141 154 153 134 158 154 169 271 208 137 315 309 329 342 316 295 281
256 260 247 229 238 190 222 228 224 247 222 239 236 228 208 199 181 165 154 164 178 182 181 200 158 156 148 143 147 149 158 164 153 152 130 131 152 147 161 257 266 207 229 274 316 293 298 300 306
241 255 261 277 288 202 247 248 239 240 243 204 211 222 215 191 155 151 149 165 190 192 195 191 162 156 152 147 158 151 164 176 164 153 140 172 158 170 201 230 283 320 333 311 278 276 302 290 251
224 228 242 252 272 285 349 275 246 245 257 249 214 214 206 195 180 165 165 175 184 184 187 171 151 150 151 158 151 110 75 58 76 134 161 179 171 162 170 291 281 291 271 263 286 299 284 282 316
237 224 237 242 248 249 174 269 256 248 229 226 229 209 211 197 183 163 164 173 176 176 170 149 144 146 155 151 130 140 148 152 193 177 176 164 157 171 190 202 254 255 274 285 273 253 246 348 280
239 220 226 245 240 242 217 251 257 204 239 233 222 225 208 199 179 170 164 156 163 151 147 134 133 146 149 139 151 167 180 166 121 119 120 141 168 173 192 208 234 234 247 255 268 330 355 347 0
234 200 29 293 228 229 220 205 268 233 242 247 249 207 207 179 158 156 149 141 136 138 139 134 134 139 137 144 165 163 166 165 136 148 156 183 188 178 181 184 210 247 252 249 253 196 80 308 313
124 147 204 215 209 235 203 208 243 225 233 243 249 206 186 154 153 149 149 147 145 151 149 144 144 152 149 156 167 166 157 156 165 167 167 175 176 167 183 177 188 214 231 242 251 267 245 246 240
190 192 206 227 207 226 159 206 238 229 231 248 266 175 143 152 153 151 149 154 152 150 150 146 152 156 156 159 167 162 161 159 176 183 163 159 150 161 99 93 169 233 235 232 245 240 243 244 242
182 217 222 278 189 251 180 269 303 209 190 140 134 153 157 151 151 142 140 146 144 145 149 147 151 156 158 157 161 166 162 171 176 171 128 130 104 121 145 91 36 347 10 41 42 337 230 231 233
206 155 190 209 229 239 197 262 231 245 207 154 166 166 157 142 134 131 129 126 123 123 117 110 110 112 105 130 144 156 167 158 128 102 119 111 128 122 157 141 218 236 236 246 222 231 232 225 220
161 191 205 230 211 238 193 232 227 244 221 181 166 173 160 146 137 127 116 96 93 87 84 88 87 98 88 75 66 116 150 134 132 145 185 187 165 182 193 196 207 212 203 207 224 231 237 223 223
322 234 195 199 175 231 39 269 294 327 314 231 169 165 151 133 128 122 110 110 106 111 108 117 105 107 116 108 100 161 153 137 148 183 203 185 190 198 211 215 202 201 202 199 222 225 242 239 227